Location: Allen Lane School
(37.8198°N, 89.7382°W)
Time: 05:35:25
(UTC+00:00)

Meteor 1-14 Rocket - Pass Details

Date: 06 July 2022
Orbit: 833 x 919 km, 81.3° (Epoch: 12 August)

Event Time Altitude Azimuth Distance (km) Brightness Sun altitude
Exits shadow 09:15:24 11° 183° (S) 2,498 6.2 -14.6°
Maximum altitude 09:21:04 80° 97° (E) 897 4.4 -13.8°
Drops below altitude 10° 09:26:47 10° 11° (NNE) 2,512 7.5 -13.0°
Sets 09:29:11 0° 11° (N) 3,441 8.3 -12.6°
